This demonstration page uses our WeatherBlox Daily Observations layout. Learn more.

Hourly Observations for August 29, 2019

Temp ( °F °C ) Dew Point ( °F °C ) Humidity (%) Winds ( mph kmh ) Pressure ( in mb ) Visibility ( mi km ) Precip ( " mm )
12:15 am 00:15 Clear 69 20.8 66 19.1 90 90 S 8 13 29.88 1012 10 16.09344 0 0
2:35 am 02:35 Clear 68 20.1 66 19 93 93 SSW 10 17 29.88 1012 10 16.09344 0 0
2:55 am 02:55 Clear 68 19.9 66 18.9 94 94 SW 7 11 29.85 1011 10 16.09344 0 0
3:15 am 03:15 Clear 67 19.6 66 18.7 95 95 SSW 8 13 29.85 1011 10 16.09344 0 0
3:35 am 03:35 Clear 67 19.6 66 18.7 95 95 SSW 8 13 29.85 1011 10 16.09344 0 0
3:55 am 03:55 Clear 67 19.5 65 18.6 95 95 SSW 8 13 29.85 1011 10 16.09344 0 0
4:15 am 04:15 Clear 67 19.3 65 18.5 95 95 S 10 17 29.85 1011 10 16.09344 0 0
4:35 am 04:35 Clear 67 19.3 65 18.5 95 95 SSW 9 15 29.85 1011 10 16.09344 0 0
4:55 am 04:55 Clear 67 19.2 65 18.5 96 96 SSW 8 13 29.85 1011 10 16.09344 0 0
5:15 am 05:15 Clear 66 19.1 65 18.3 95 95 SSW 10 17 29.85 1011 10 16.09344 0 0
5:35 am 05:35 Clear 66 19.1 65 18.3 95 95 SSW 7 11 29.85 1011 10 16.09344 0 0
5:55 am 05:55 Clear 66 19.1 65 18.4 96 96 SSW 7 11 29.85 1011 10 16.09344 0 0
6:15 am 06:15 Clear 66 18.7 65 18.1 96 96 SSW 7 11 29.88 1012 10 16.09344 0 0
6:35 am 06:35 Clear 65 18.6 65 18.1 97 97 SSW 5 7 29.88 1012 10 16.09344 0 0
6:55 am 06:55 Clear 65 18.1 64 17.7 98 98 S 5 7 29.91 1013 10 16.09344 0 0
7:15 am 07:15 Sunny 65 18.2 64 18 99 99 S 3 6 29.91 1013 10 16.09344 0 0
7:35 am 07:35 Sunny 65 18.6 65 18.1 97 97 S 3 6 29.91 1013 10 16.09344 0 0
7:55 am 07:55 Sunny 67 19.2 65 18.5 96 96 S 6 9 29.88 1012 10 16.09344 0 0
8:15 am 08:15 Sunny 68 19.8 66 18.8 94 94 SSW 6 9 29.88 1012 10 16.09344 0 0
8:35 am 08:35 Sunny 69 20.5 67 19.2 92 92 S 6 9 29.88 1012 10 16.09344 0 0
8:55 am 08:55 Sunny 70 21.3 67 19.5 90 90 S 8 13 29.88 1012 10 16.09344 0 0
9:15 am 09:15 Sunny 72 22.1 68 19.9 87 87 SSW 6 9 29.88 1012 7 11.265408 0 0
9:35 am 09:35 Sunny 73 23 68 20 83 83 SSW 8 13 29.85 1011 10 16.09344 0 0
9:55 am 09:55 Sunny 74 23.5 69 20.3 82 82 SSW 7 11 29.85 1011 10 16.09344 0 0
10:15 am 10:15 Sunny 75 24.1 69 20.4 80 80 SSW 8 13 29.85 1011 10 16.09344 0 0
10:35 am 10:35 Sunny 76 24.7 69 20.8 79 79 SSW 6 9 29.85 1011 10 16.09344 0 0
10:55 am 10:55 Sunny 77 25.1 70 21.1 79 79 S 6 9 29.85 1011 10 16.09344 0 0
11:15 am 11:15 Sunny 78 25.8 70 21.3 76 76 SSW 6 9 29.85 1011 10 16.09344 0 0
11:35 am 11:35 Sunny 79 26.2 71 21.9 77 77 SSE 5 7 29.85 1011 10 16.09344 0 0
11:55 am 11:55 Sunny 80 26.5 71 21.6 75 75 SE 3 6 29.83 1010 10 16.09344 0 0
12:15 pm 12:15 Sunny 80 26.7 72 22 75 75 SSE 3 6 29.83 1010 10 16.09344 0 0
12:35 pm 12:35 Sunny 81 27.2 73 22.6 76 76 SE 6 9 29.83 1010 10 16.09344 0 0
12:55 pm 12:55 Sunny 82 27.5 72 22.3 73 73 E 3 6 29.83 1010 10 16.09344 0 0
1:15 pm 13:15 Partly Cloudy 82 28 73 22.9 74 74 E 6 9 29.83 1010 10 16.09344 0 0
1:35 pm 13:35 Sunny 83 28.2 74 23.2 74 74 E 8 13 29.83 1010 10 16.09344 0 0
1:55 pm 13:55 Sunny 83 28.6 74 23.2 73 73 E 9 15 29.83 1010 10 16.09344 0 0
2:15 pm 14:15 Sunny 84 28.8 74 23.2 72 72 E 9 15 29.83 1010 10 16.09344 0 0
2:35 pm 14:35 Sunny 85 29.2 74 23.5 71 71 E 12 19 29.83 1010 10 16.09344 0 0
2:55 pm 14:55 Sunny 85 29.5 74 23.6 71 71 ESE 10 17 29.83 1010 10 16.09344 0 0
3:15 pm 15:15 Partly Cloudy 85 29.7 74 23.4 69 69 E 8 13 29.83 1010 10 16.09344 0 0
3:35 pm 15:35 Partly Cloudy 86 29.8 74 23.5 69 69 ESE 12 19 29.83 1010 10 16.09344 0 0
3:55 pm 15:55 Partly Cloudy 85 29.6 74 23.5 70 70 E 12 19 29.8 1009 10 16.09344 0 0
4:15 pm 16:15 Partly Cloudy 86 29.8 75 23.7 70 70 ESE 9 15 29.83 1010 10 16.09344 0 0
4:35 pm 16:35 Partly Cloudy 86 30.1 74 23.4 67 67 E 10 17 29.83 1010 10 16.09344 0 0
4:55 pm 16:55 Mostly Cloudy 86 29.9 75 23.7 69 69 E 12 19 29.8 1009 10 16.09344 0 0
5:15 pm 17:15 Partly Cloudy 85 29.5 74 23.1 68 68 E 13 20 29.8 1009 10 16.09344 0 0
5:35 pm 17:35 Mostly Cloudy 83 28.2 75 23.7 77 77 ENE 9 15 29.8 1009 10 16.09344 0 0
5:55 pm 17:55 Mostly Cloudy 82 27.8 75 24.1 80 80 NE 9 15 29.83 1010 10 16.09344 0 0
6:15 pm 18:15 Partly Cloudy 80 26.9 75 24 84 84 NE 12 19 29.83 1010 10 16.09344 0 0
6:35 pm 18:35 Mostly Cloudy 78 25.8 72 22 80 80 NNE 15 24 29.88 1012 10 16.09344 0 0
6:55 pm 18:55 Mostly Cloudy 76 24.5 69 20.5 78 78 NNE 14 22 29.91 1013 10 16.09344 0 0
7:15 pm 19:15 Partly Cloudy with Nearby Thunderstorms 74 23.5 66 19.1 76 76 N 7 11 29.97 1015 10 16.09344 0 0
7:35 pm 19:35 Mostly Cloudy with Light Thunderstorms 73 22.8 67 19.3 81 81 WSW 9 15 29.97 1015 10 16.09344 0 0
7:55 pm 19:55 Mostly Cloudy with Light Rain 72 22.1 67 19.4 85 85 E 14 22 29.91 1013 10 16.09344 0 0
8:15 pm 20:15 Mostly Cloudy with Light Rain 71 21.5 66 19 86 86 E 15 24 29.88 1012 10 16.09344 0 0
8:35 pm 20:35 Partly Cloudy with Nearby Thunderstorms 70 21 65 18.5 86 86 E 18 30 29.83 1010 10 16.09344 0 0
8:55 pm 20:55 Clear with Nearby Thunderstorms 69 20.8 64 18 84 84 ENE 20 31 29.85 1011 10 16.09344 0 0
9:15 pm 21:15 Clear 69 20.7 63 17.1 80 80 NNE 17 28 29.88 1012 10 16.09344 0 0
9:35 pm 21:35 Clear 68 19.9 62 16.6 81 81 NNE 17 28 29.91 1013 10 16.09344 0 0
9:55 pm 21:55 Clear 67 19.5 61 16 80 80 NE 14 22 29.97 1015 10 16.09344 0 0
10:15 pm 22:15 Clear 67 19.5 60 15.3 77 77 NE 14 22 30 1016 10 16.09344 0 0
10:35 pm 22:35 Clear 67 19.5 58 14.6 73 73 NE 12 19 30 1016 10 16.09344 0 0
10:55 pm 22:55 Clear 66 19 58 14.3 74 74 ENE 13 20 30 1016 10 16.09344 0 0
11:15 pm 23:15 Clear 65 18.5 58 14.5 78 78 NE 10 17 30 1016 10 16.09344 0 0
11:35 pm 23:35 Clear 65 18.2 58 14.2 78 78 NE 9 15 29.97 1015 10 16.09344 0 0
11:55 pm 23:55 Clear 64 17.8 57 14 79 79 NE 8 13 30 1016 10 16.09344 0 0

Powered by AerisWeather